| time (UTC) | temp C | wind direction | speed KPH | gust KPH | rain 1hr cm | rain 24hr cm | rain mn cm | humidity % | barometer mb |
| 20260904010911 | 27 | 0 | 0.0 | 1.6 | 0.00 | 0.08 | 0.00 | 24 | 1016.5 |
| 20260904010011 | 27 | 0 | 0.0 | 0.0 | 0.00 | 0.08 | 0.00 | 20 | 1016.5 |
| 20260904005411 | 28 | 0 | 0.0 | 0.0 | 0.00 | 0.08 | 0.00 | 20 | 1016.5 |
| 20260904004512 | 28 | 0 | 0.0 | 0.0 | 0.00 | 0.08 | 0.00 | 21 | 1016.5 |
| 20260904003633 | 28 | 60 | 1.6 | 6.4 | 0.00 | 0.08 | 0.00 | 21 | 1016.5 |
| 20260904002732 | 28 | 60 | 0.0 | 6.4 | 0.00 | 0.08 | 0.00 | 23 | 1016.5 |
| 20260904001811 | 28 | 60 | 0.0 | 6.4 | 0.00 | 0.08 | 0.00 | 22 | 1016.5 |
| 20260904000911 | 28 | 60 | 0.0 | 1.6 | 0.00 | 0.08 | 0.00 | 21 | 1016.5 |
| 20260904000011 | 28 | 0 | 0.0 | 0.0 | 0.00 | 0.08 | 0.00 | 24 | 1016.5 |
| 20260903235411 | 27 | 0 | 0.0 | 0.0 | 0.00 | 0.08 | 0.00 | 24 | 1016.5 |
| 20260903234511 | 28 | 60 | 1.6 | 6.4 | 0.00 | 0.08 | 0.00 | 24 | 1016.5 |
| 20260903233611 | 28 | 0 | 0.0 | 0.0 | 0.00 | 0.08 | 0.00 | 22 | 1016.5 |
| 20260903232712 | 28 | 60 | 1.6 | 8.0 | 0.00 | 0.08 | 0.00 | 21 | 1016.5 |
| 20260903231811 | 28 | 60 | 1.6 | 8.0 | 0.00 | 0.08 | 0.00 | 22 | 1016.5 |
| 20260903230911 | 28 | 60 | 1.6 | 6.4 | 0.00 | 0.08 | 0.00 | 23 | 1016.5 |
| 20260903230011 | 28 | 60 | 3.2 | 9.7 | 0.00 | 0.08 | 0.00 | 23 | 1016.5 |
| 20260903225411 | 28 | 61 | 1.6 | 8.0 | 0.00 | 0.08 | 0.00 | 23 | 1016.5 |
| 20260903224533 | 28 | 61 | 1.6 | 8.0 | 0.00 | 0.08 | 0.00 | 22 | 1016.5 |
| 20260903223611 | 28 | 58 | 3.2 | 9.7 | 0.00 | 0.08 | 0.00 | 21 | 1016.5 |
| 20260903222711 | 30 | 31 | 4.8 | 11.3 | 0.00 | 0.08 | 0.00 | 21 | 1016.5 |
| 20260903221811 | 30 | 16 | 4.8 | 12.9 | 0.00 | 0.08 | 0.00 | 21 | 1016.5 |
| 20260903220911 | 30 | 26 | 4.8 | 16.1 | 0.00 | 0.08 | 0.00 | 20 | 1016.5 |
| 20260903220011 | 30 | 48 | 4.8 | 16.1 | 0.00 | 0.08 | 0.00 | 23 | 1016.5 |
| 20260903215411 | 30 | 53 | 4.8 | 14.5 | 0.00 | 0.08 | 0.00 | 21 | 1016.5 |
| 20260903214512 | 30 | 53 | 3.2 | 14.5 | 0.00 | 0.08 | 0.00 | 21 | 1016.5 |
| 20260903213611 | 30 | 54 | 4.8 | 11.3 | 0.00 | 0.08 | 0.00 | 23 | 1016.5 |
| 20260903212711 | 30 | 36 | 8.0 | 16.1 | 0.00 | 0.08 | 0.00 | 24 | 1016.5 |
| 20260903211811 | 30 | 14 | 6.4 | 14.5 | 0.00 | 0.08 | 0.00 | 25 | 1016.5 |
| 20260903210911 | 30 | 13 | 3.2 | 14.5 | 0.00 | 0.08 | 0.00 | 24 | 1016.5 |
| 20260903210011 | 30 | 7 | 3.2 | 14.5 | 0.00 | 0.08 | 0.00 | 24 | 1016.5 |
| 20260903205411 | 30 | 22 | 6.4 | 14.5 | 0.00 | 0.08 | 0.00 | 25 | 1016.5 |
| 20260903204511 | 30 | 15 | 8.0 | 16.1 | 0.00 | 0.08 | 0.00 | 26 | 1016.5 |
| 20260903203611 | 29 | 2 | 6.4 | 16.1 | 0.00 | 0.08 | 0.00 | 26 | 1016.5 |
| 20260903202712 | 29 | 9 | 4.8 | 12.9 | 0.00 | 0.08 | 0.00 | 28 | 1016.5 |
| 20260903201833 | 28 | 47 | 8.0 | 16.1 | 0.00 | 0.08 | 0.00 | 27 | 1016.5 |
| 20260903200912 | 28 | 32 | 6.4 | 14.5 | 0.00 | 0.08 | 0.00 | 29 | 1016.5 |
| 20260903200011 | 28 | 21 | 6.4 | 16.1 | 0.00 | 0.08 | 0.00 | 29 | 1016.5 |
| 20260903195412 | 28 | 18 | 4.8 | 16.1 | 0.00 | 0.08 | 0.00 | 30 | 1016.5 |
| 20260903194511 | 28 | 347 | 3.2 | 14.5 | 0.00 | 0.08 | 0.00 | 30 | 1016.5 |
| 20260903193633 | 28 | 3 | 4.8 | 16.1 | 0.00 | 0.08 | 0.00 | 30 | 1016.5 |
| 20260903192712 | 28 | 20 | 4.8 | 12.9 | 0.00 | 0.08 | 0.00 | 30 | 1016.5 |
| 20260903191812 | 28 | 9 | 3.2 | 14.5 | 0.00 | 0.08 | 0.00 | 29 | 1016.5 |
| 20260903190911 | 28 | 14 | 4.8 | 12.9 | 0.00 | 0.08 | 0.00 | 31 | 1016.5 |
| 20260903190011 | 28 | 32 | 8.0 | 16.1 | 0.00 | 0.08 | 0.00 | 30 | 1016.5 |
| 20260903185412 | 28 | 34 | 3.2 | 14.5 | 0.00 | 0.08 | 0.00 | 30 | 1016.5 |
| 20260903184511 | 28 | 339 | 3.2 | 12.9 | 0.00 | 0.25 | 0.00 | 30 | 1016.5 |
| 20260903183612 | 28 | 41 | 3.2 | 11.3 | 0.00 | 0.58 | 0.00 | 32 | 1016.5 |
| 20260903182712 | 27 | 353 | 4.8 | 14.5 | 0.00 | 0.58 | 0.00 | 32 | 1016.5 |
| 20260903181812 | 27 | 358 | 3.2 | 12.9 | 0.00 | 0.58 | 0.00 | 33 | 1016.5 |
| 20260903180911 | 27 | 344 | 3.2 | 16.1 | 0.00 | 0.61 | 0.00 | 32 | 1016.5 |
| 20260903180011 | 27 | 10 | 6.4 | 17.7 | 0.00 | 0.61 | 0.00 | 35 | 1016.5 |
| 20260903175411 | 27 | 18 | 8.0 | 16.1 | 0.00 | 0.61 | 0.00 | 38 | 1016.5 |
| 20260903174512 | 27 | 8 | 4.8 | 12.9 | 0.00 | 0.61 | 0.00 | 37 | 1016.5 |
| 20260903173632 | 26 | 352 | 4.8 | 12.9 | 0.00 | 0.61 | 0.00 | 37 | 1016.5 |
| 20260903172711 | 26 | 355 | 4.8 | 14.5 | 0.00 | 0.64 | 0.00 | 41 | 1016.5 |
| 20260903171811 | 26 | 337 | 6.4 | 16.1 | 0.00 | 0.71 | 0.00 | 42 | 1016.5 |
| 20260903170911 | 25 | 331 | 3.2 | 12.9 | 0.00 | 0.71 | 0.00 | 44 | 1016.5 |
| 20260903170011 | 25 | 332 | 1.6 | 12.9 | 0.00 | 0.71 | 0.00 | 41 | 1016.5 |
| 20260903165411 | 25 | 332 | 3.2 | 12.9 | 0.00 | 0.71 | 0.00 | 43 | 1016.5 |
| 20260903164532 | 25 | 324 | 3.2 | 12.9 | 0.00 | 0.71 | 0.00 | 44 | 1016.5 |
| 20260903163633 | 25 | 333 | 3.2 | 16.1 | 0.00 | 0.71 | 0.00 | 46 | 1016.5 |
| 20260903162712 | 25 | 66 | 3.2 | 11.3 | 0.00 | 0.71 | 0.00 | 46 | 1016.5 |
| 20260903161832 | 25 | 30 | 4.8 | 9.7 | 0.00 | 0.71 | 0.00 | 47 | 1016.5 |
| 20260903160911 | 24 | 31 | 1.6 | 9.7 | 0.00 | 0.71 | 0.00 | 48 | 1016.5 |
| 20260903160011 | 24 | 31 | 1.6 | 9.7 | 0.00 | 0.71 | 0.00 | 48 | 1016.5 |
| 20260903155411 | 23 | 32 | 3.2 | 9.7 | 0.00 | 0.71 | 0.00 | 50 | 1016.5 |
| 20260903154512 | 23 | 30 | 0.0 | 6.4 | 0.00 | 0.71 | 0.00 | 47 | 1016.5 |
| 20260903153611 | 22 | 0 | 0.0 | 1.6 | 0.00 | 0.71 | 0.00 | 48 | 1016.5 |
| 20260903152732 | 22 | 0 | 0.0 | 0.0 | 0.00 | 0.71 | 0.00 | 48 | 1016.5 |
| 20260903151812 | 22 | 223 | 1.6 | 6.4 | 0.00 | 0.71 | 0.00 | 48 | 1016.5 |
| 20260903150911 | 22 | 0 | 0.0 | 0.0 | 0.00 | 0.71 | 0.00 | 48 | 1016.5 |
| 20260903150012 | 21 | 0 | 0.0 | 0.0 | 0.00 | 0.71 | 0.00 | 51 | 1016.5 |
| 20260903145412 | 21 | 0 | 0.0 | 0.0 | 0.00 | 0.71 | 0.00 | 53 | 1016.5 |
| 20260903144512 | 20 | 0 | 0.0 | 0.0 | 0.00 | 0.71 | 0.00 | 53 | 1016.5 |
| 20260903143611 | 20 | 0 | 0.0 | 0.0 | 0.00 | 0.71 | 0.00 | 54 | 1016.5 |
| 20260903142712 | 20 | 0 | 0.0 | 0.0 | 0.00 | 0.71 | 0.00 | 54 | 1016.5 |
| 20260903141812 | 19 | 0 | 0.0 | 0.0 | 0.00 | 0.71 | 0.00 | 56 | 1016.5 |
| 20260903140911 | 18 | 0 | 0.0 | 0.0 | 0.00 | 0.71 | 0.00 | 59 | 1016.5 |
| 20260903140033 | 17 | 140 | 1.6 | 6.4 | 0.00 | 0.71 | 0.00 | 61 | 1016.5 |
| 20260903135412 | 17 | 140 | 1.6 | 6.4 | 0.00 | 0.71 | 0.00 | 62 | 1016.5 |
| 20260903134511 | 17 | 0 | 0.0 | 0.0 | 0.00 | 0.71 | 0.00 | 61 | 1016.5 |
| 20260903133611 | 18 | 174 | 3.2 | 12.9 | 0.00 | 0.71 | 0.00 | 58 | 1016.5 |
| 20260903132711 | 17 | 189 | 1.6 | 12.9 | 0.00 | 0.71 | 0.00 | 52 | 1016.5 |
| 20260903131811 | 16 | 327 | 0.0 | 4.8 | 0.00 | 0.71 | 0.00 | 66 | 1016.5 |
| 20260903130911 | 16 | 0 | 0.0 | 0.0 | 0.00 | 0.71 | 0.00 | 65 | 1016.5 |
| 20260903130011 | 17 | 132 | 0.0 | 9.7 | 0.00 | 0.71 | 0.00 | 62 | 1016.5 |
| 20260903125412 | 17 | 98 | 3.2 | 14.5 | 0.00 | 0.71 | 0.00 | 60 | 1016.5 |
| 20260903124512 | 18 | 175 | 3.2 | 16.1 | 0.00 | 0.71 | 0.00 | 54 | 1016.5 |
| 20260903123612 | 16 | 202 | 1.6 | 11.3 | 0.00 | 0.71 | 0.00 | 55 | 1016.5 |
| 20260903122733 | 16 | 0 | 0.0 | 0.0 | 0.00 | 0.71 | 0.00 | 65 | 1016.5 |
| 20260903121811 | 16 | 0 | 0.0 | 0.0 | 0.00 | 0.71 | 0.00 | 63 | 1016.5 |
| 20260903120933 | 17 | 0 | 0.0 | 0.0 | 0.00 | 0.71 | 0.00 | 59 | 1016.5 |
| 20260903120012 | 20 | 210 | 0.0 | 3.2 | 0.00 | 0.71 | 0.00 | 51 | 1016.5 |
| 20260903115412 | 20 | 210 | 0.0 | 8.0 | 0.00 | 0.71 | 0.00 | 43 | 1016.5 |
| 20260903114512 | 20 | 209 | 1.6 | 9.7 | 0.00 | 0.71 | 0.00 | 42 | 1016.5 |
| 20260903113612 | 20 | 213 | 3.2 | 12.9 | 0.00 | 0.71 | 0.00 | 43 | 1016.5 |
| 20260903112712 | 20 | 193 | 1.6 | 11.3 | 0.00 | 0.71 | 0.00 | 43 | 1016.5 |
| 20260903111833 | 20 | 213 | 1.6 | 9.7 | 0.00 | 0.71 | 0.00 | 44 | 1016.5 |
| 20260903110911 | 20 | 196 | 1.6 | 8.0 | 0.00 | 0.71 | 0.00 | 44 | 1016.5 |
| 20260903110033 | 20 | 190 | 1.6 | 8.0 | 0.00 | 0.71 | 0.00 | 44 | 1016.5 |
| 20260903105411 | 20 | 189 | 1.6 | 8.0 | 0.00 | 0.71 | 0.00 | 44 | 1016.5 |
| 20260903104512 | 21 | 180 | 3.2 | 16.1 | 0.00 | 0.71 | 0.00 | 44 | 1016.5 |
| 20260903103612 | 21 | 197 | 0.0 | 8.0 | 0.00 | 0.71 | 0.00 | 44 | 1016.5 |
| 20260903102712 | 21 | 201 | 3.2 | 12.9 | 0.00 | 0.71 | 0.00 | 43 | 1016.5 |
| 20260903101811 | 21 | 202 | 3.2 | 11.3 | 0.00 | 0.71 | 0.00 | 44 | 1016.5 |
| 20260903100911 | 21 | 198 | 4.8 | 12.9 | 0.00 | 0.71 | 0.00 | 44 | 1016.5 |
| 20260903100033 | 21 | 183 | 6.4 | 20.9 | 0.00 | 0.71 | 0.00 | 43 | 1016.5 |
| 20260903095412 | 21 | 189 | 3.2 | 20.9 | 0.00 | 0.71 | 0.00 | 43 | 1016.5 |
| 20260903094512 | 21 | 222 | 3.2 | 11.3 | 0.00 | 0.71 | 0.00 | 44 | 1016.5 |
| 20260903093611 | 21 | 228 | 0.0 | 6.4 | 0.00 | 0.71 | 0.00 | 44 | 1016.5 |
| 20260903092711 | 21 | 201 | 1.6 | 9.7 | 0.00 | 0.71 | 0.00 | 45 | 1016.5 |
| 20260903091833 | 21 | 191 | 1.6 | 9.7 | 0.00 | 0.71 | 0.00 | 44 | 1016.5 |
| 20260903090912 | 22 | 208 | 3.2 | 12.9 | 0.00 | 0.71 | 0.00 | 43 | 1016.5 |
| 20260903090011 | 22 | 196 | 4.8 | 12.9 | 0.00 | 0.71 | 0.00 | 44 | 1016.5 |
| 20260903085433 | 22 | 194 | 1.6 | 11.3 | 0.00 | 0.71 | 0.00 | 44 | 1016.5 |
| 20260903084512 | 22 | 193 | 4.8 | 14.5 | 0.00 | 0.71 | 0.00 | 44 | 1016.5 |
| 20260903083612 | 22 | 192 | 3.2 | 17.7 | 0.00 | 0.71 | 0.00 | 44 | 1016.5 |
| 20260903082733 | 22 | 217 | 3.2 | 14.5 | 0.00 | 0.71 | 0.00 | 45 | 1016.5 |
| 20260903081812 | 22 | 202 | 4.8 | 11.3 | 0.00 | 0.71 | 0.00 | 45 | 1016.5 |
| 20260903080912 | 22 | 194 | 4.8 | 14.5 | 0.00 | 0.71 | 0.00 | 45 | 1016.5 |
| 20260903080012 | 22 | 194 | 0.0 | 6.4 | 0.00 | 0.71 | 0.00 | 45 | 1016.5 |
| 20260903075412 | 22 | 198 | 3.2 | 22.5 | 0.00 | 0.71 | 0.00 | 44 | 1016.5 |
| 20260903074512 | 22 | 199 | 4.8 | 22.5 | 0.00 | 0.71 | 0.00 | 45 | 1016.5 |
| 20260903073611 | 22 | 199 | 3.2 | 9.7 | 0.00 | 0.71 | 0.00 | 45 | 1016.5 |
| 20260903072712 | 22 | 201 | 4.8 | 11.3 | 0.00 | 0.71 | 0.00 | 45 | 1016.5 |
| 20260903071812 | 22 | 196 | 3.2 | 11.3 | 0.00 | 0.71 | 0.00 | 45 | 1016.5 |
| 20260903070912 | 22 | 203 | 1.6 | 12.9 | 0.00 | 0.71 | 0.00 | 45 | 1016.5 |
| 20260903070012 | 22 | 209 | 1.6 | 12.9 | 0.00 | 0.71 | 0.00 | 45 | 1016.5 |
| 20260903065411 | 22 | 199 | 3.2 | 12.9 | 0.00 | 0.71 | 0.00 | 45 | 1016.5 |
| 20260903064512 | 22 | 198 | 6.4 | 14.5 | 0.00 | 0.71 | 0.00 | 44 | 1016.5 |
| 20260903063612 | 23 | 199 | 8.0 | 25.7 | 0.00 | 0.71 | 0.00 | 44 | 1016.5 |
| 20260903062712 | 23 | 199 | 8.0 | 17.7 | 0.00 | 0.71 | 0.00 | 45 | 1016.5 |
| 20260903061812 | 23 | 198 | 8.0 | 14.5 | 0.00 | 0.71 | 0.00 | 45 | 1016.5 |
| 20260903060932 | 23 | 195 | 6.4 | 14.5 | 0.00 | 0.71 | 0.00 | 44 | 1016.5 |
| 20260903060033 | 23 | 195 | 3.2 | 14.5 | 0.00 | 0.71 | 0.00 | 44 | 1016.5 |
| 20260903055412 | 23 | 200 | 3.2 | 12.9 | 0.00 | 0.71 | 0.71 | 43 | 1016.5 |
| 20260903054512 | 23 | 201 | 6.4 | 14.5 | 0.00 | 0.71 | 0.71 | 44 | 1016.5 |
| 20260903053612 | 23 | 201 | 8.0 | 14.5 | 0.00 | 0.71 | 0.71 | 44 | 1016.5 |
| 20260903052712 | 23 | 193 | 3.2 | 14.5 | 0.00 | 0.71 | 0.71 | 44 | 1016.5 |
| 20260903051812 | 23 | 182 | 4.8 | 16.1 | 0.00 | 0.71 | 0.71 | 44 | 1016.5 |
| 20260903050912 | 23 | 185 | 3.2 | 16.1 | 0.00 | 0.71 | 0.71 | 45 | 1016.5 |
| 20260903050012 | 23 | 188 | 3.2 | 14.5 | 0.00 | 0.71 | 0.71 | 45 | 1016.5 |
| 20260903045411 | 23 | 189 | 3.2 | 14.5 | 0.00 | 0.71 | 0.71 | 44 | 1016.5 |
| 20260903044533 | 23 | 189 | 3.2 | 12.9 | 0.00 | 0.71 | 0.71 | 45 | 1016.5 |
| 20260903043612 | 23 | 197 | 4.8 | 12.9 | 0.00 | 0.71 | 0.71 | 43 | 1016.5 |
| 20260903042712 | 23 | 201 | 3.2 | 14.5 | 0.00 | 0.71 | 0.71 | 44 | 1016.5 |
| 20260903041812 | 23 | 188 | 6.4 | 25.7 | 0.00 | 0.71 | 0.71 | 44 | 1016.5 |
| 20260903040911 | 23 | 184 | 4.8 | 17.7 | 0.00 | 0.71 | 0.71 | 44 | 1016.5 |
| 20260903040012 | 23 | 190 | 3.2 | 19.3 | 0.00 | 0.71 | 0.71 | 44 | 1016.5 |
| 20260903035412 | 23 | 193 | 3.2 | 16.1 | 0.00 | 0.71 | 0.71 | 45 | 1016.5 |
| 20260903034532 | 23 | 193 | 8.0 | 17.7 | 0.00 | 0.71 | 0.71 | 45 | 1016.5 |
| 20260903033612 | 23 | 181 | 6.4 | 19.3 | 0.00 | 0.71 | 0.71 | 45 | 1016.5 |
| 20260903032733 | 23 | 185 | 8.0 | 17.7 | 0.00 | 0.71 | 0.71 | 45 | 1016.5 |
| 20260903031812 | 23 | 211 | 3.2 | 17.7 | 0.00 | 0.71 | 0.71 | 46 | 1016.5 |
| 20260903030912 | 23 | 212 | 4.8 | 12.9 | 0.00 | 0.71 | 0.71 | 46 | 1016.5 |
| 20260903030012 | 23 | 202 | 8.0 | 20.9 | 0.00 | 0.71 | 0.71 | 47 | 1016.5 |
| 20260903025412 | 23 | 188 | 8.0 | 19.3 | 0.00 | 0.71 | 0.71 | 46 | 1016.5 |
| 20260903024512 | 23 | 185 | 11.3 | 24.1 | 0.00 | 0.71 | 0.71 | 47 | 1016.5 |
| 20260903023612 | 23 | 184 | 9.7 | 19.3 | 0.08 | 0.71 | 0.71 | 48 | 1016.5 |
| 20260903022711 | 22 | 181 | 9.7 | 19.3 | 0.08 | 0.71 | 0.71 | 50 | 1016.5 |
| 20260903021812 | 21 | 197 | 3.2 | 12.9 | 0.08 | 0.71 | 0.71 | 59 | 1016.5 |
| 20260903020912 | 21 | 206 | 6.4 | 17.7 | 0.08 | 0.71 | 0.71 | 62 | 1016.5 |
| 20260903020012 | 21 | 206 | 6.4 | 16.1 | 0.08 | 0.71 | 0.71 | 66 | 1016.5 |
| 20260903015412 | 22 | 189 | 4.8 | 14.5 | 0.08 | 0.71 | 0.71 | 66 | 1016.5 |
| 20260903014512 | 24 | 0 | 0.0 | 0.0 | 0.08 | 0.71 | 0.71 | 62 | 1016.5 |
| 20260903013612 | 25 | 0 | 0.0 | 0.0 | 0.00 | 0.64 | 0.64 | 48 | 1016.5 |
| 20260903012712 | 25 | 0 | 0.0 | 1.6 | 0.00 | 0.64 | 0.64 | 42 | 1016.5 |
| 20260903011811 | 25 | 0 | 0.0 | 0.0 | 0.00 | 0.64 | 0.64 | 46 | 1016.5 |